148  
ASUS44 KMOB 171912  
RWRMOB  
REGIONAL WEATHER ROUNDUP  
NATIONAL WEATHER SERVICE MOBILE AL  
200 PM CDT TUE SEP 17 2019  
 
NOTE: "FAIR" INDICATES FEW OR NO CLOUDS BELOW 12,000 FEET WITH NO  
SIGNIFICANT WEATHER AND/OR S TO VISIBILITY
.  
 
* THESE STATIONS ARE PART OF THE UNIVERSITY OF SOUTH ALABAMA  
MESONET AND ARE NOT UNDER NWS OR FAA QUALITY CONTROL.
 
 
ALZ061>064-172000-  
COASTAL ALABAMA  
 
CITY SKY/WX TMP DP RH WIND PRES REMARKS
 
MOBILE REG APT FAIR 98 68 37 N5 30.00F HX 103  
BROOKLEY FIELD FAIR 96 71 44 SE7 30.00F HX 103  
USA CAMPUS* N/A 97 63 32 W3 30.02F HX 98  
DOG RIVER* N/A 95 70 43 S6 29.99F HX 101  
 
 
CITY SKY/WX TMP DP RH WIND PRES REMARKS
 
GULF SHORES PTSUNNY 95 68 41 SW10 29.99F HX 99  
 

 
 
ALZ051>060-172000-  
INTERIOR SOUTHWEST AND SOUTH CENTRAL ALABAMA  
 
CITY SKY/WX TMP DP RH WIND PRES REMARKS
 
GREENVILLE FAIR 99 55 23 E6 29.97F HX 97  
EVERGREEN FAIR 99 63 30 VRB3 29.98 HX 101  
ATMORE* N/A 97 64 34 CALM 29.98F HX 99  
ANDALUSIA/OPP FAIR 102 60 25 VRB3 29.97F HX 103  
ANDALUSIA* N/A 99 55 23 NW5 29.99F HX 97  
FLORALA APT PTSUNNY 98 59 27 SW3 29.98F HX 98  
FLORALA* N/A 90 52 27 CALM 29.98F  
 

 
 
FLZ001>006-172000-  
WESTERN FLORIDA PANHANDLE  
 
CITY SKY/WX TMP DP RH WIND PRES REMARKS
 
PENSACOLA FAIR 98 65 33 VRB7 29.98 HX 101  
NAS PENSACOLA FAIR 94 76 55 SW14 29.98F HX 106  
MILTON FAIR 95 62 33 VRB5 29.97F HX 96  
WHTNG S FIELD FAIR 97 62 31 CALM 29.97F HX 98  
 
 
CITY SKY/WX TMP DP RH WIND PRES REMARKS
 
JAY* NOT AVBL  
DUKE FIELD FAIR 99 61 28 N7 29.97F HX 99  
CRESTVIEW PTSUNNY 99 61 28 VRB5 29.98 HX 99  
VALPARAISO FAIR 94 72 49 S13 29.96F HX 102  
DESTIN FAIR 91 77 63 VRB7 29.97F HX 104  
 

 
 
MSZ076-079-172000-  
INTERIOR SOUTHEAST MISSISSIPPI  
 
CITY SKY/WX TMP DP RH WIND PRES REMARKS
 
LEAKESVILLE* N/A 95 63 34 NW3 30.01F HX 96  
AGRICOLA* N/A 95 63 34 E3 30.01F HX 96  
 

 
 
MARINE OBSERVATIONS  
 
STATION/POSITION TIME TEMP WIND PRES WAVE
 
AIR SEA DIR/SP/G HT/PER  
(UTC) (F) (DEG/KT/KT) (MB) (FT/S)  
PETIT BOIS ISLND 1824 87 220/ 5/ 5 1016.6F  
GRAND BAY 1730 87 200/ 6 1018.0S  
KATRINA CUT 1830 86 220/ 7 1016.3F  
CEDAR POINT 1830 86 210/ 6 1015.9F  
E DAUPHIN ISLAND 1800 86 180/ 6/ 7 1016.4F  
MIDDLE BAY LIGHT 1830 87 180/ 3 1015.9F  
USCG MOBILE BAY 1830 93 87 130/ 6/ 7 1016.0F  
STATE DOCKS 1830 100 87 1015.8F  
MEAHER PARK 1830 89 200/ 4 1015.6F  
WEEKS BAY 1745 1016.0F  
FORT MORGAN 1830 88 250/ 6/ 9 1016.3F  
12 S ORANGE BCH 1850 85 87 240/ 8/ 8 1016.0F 1  
PENSACOLA BAY 1830 89 86 170/ 7/ 9 1015.6F  
64 S DAUPHIN ISL 1850 84 70/ 2/ 4 1016.7F 1/ 5  
 

 
 
SELECTED LOCATIONS ACROSS THE REGION  
 
CITY SKY/WX TMP DP RH WIND PRES REMARKS
 
NEW ORLEANS PTSUNNY 93 72 50 S10 30.00F HX 101  
GULFPORT FAIR 94 67 41 S8 30.00F HX 97  
PASCAGOULA AP PTSUNNY 97 70 41 VRB6 29.99F HX 103  
PASCAGOULA* N/A 90 77 66 CALM 29.99F HX 102  
HATTIESBURG FAIR 95 66 38 CALM 30.01F HX 98  
LAUREL FAIR 95 71 45 S6 30.01F HX 102  
MERIDIAN FAIR 99 62 29 VRB3 29.99F HX 100  
JACKSON FAIR 96 63 33 E5 30.01F HX 97  
MONTGOMERY FAIR 100 61 27 VRB6 29.97F HX 101  
TROY FAIR 99 62 29 VRB5 29.98F HX 100  
ASHFORD* N/A 99 55 23 NW5 29.99F HX 97  
DOTHAN FAIR 99 59 26 CALM 29.99 HX 99  
PANAMA CITY FAIR 98 70 40 S10 29.95 HX 105  
 

 
 
 
 
CLICK HERE TO GO TO PREVIOUS BULLETINS.

The Nexlab AL Page
The Nexlab FL Page
The Nexlab MS Page Main Text Page